{"data":{"norad_id":63009,"intl_designator":"2025-032E","name":"STARLINK-11586 [DTC]","alt_names":[],"object_type":"PAYLOAD","status":"ACTIVE","operator":null,"country":"US","launch_date":"2025-02-15","launch_site_code":"AFETR","launch_vehicle":null,"mission":null,"orbit_class":"UNKNOWN","rcs_meters":null,"size_class":null,"mass_kg":null,"dimensions":null,"purposes":["comms"],"wikipedia_slug":null,"has_3d_model":false,"image_url":null,"decayed_at":null,"tle_current":{"epoch":"2026-05-24T23:44:37.827744Z","epoch_age_seconds":75323,"freshness":"FRESH","line1":"1 63009U 25032E   26144.98932671  .00162404  00000+0  12431-2 0  9991","line2":"2 63009  43.0004  95.4404 0002062 269.2818  90.7813 15.70867826 74215","mean_motion":15.70867826,"eccentricity":0.0002062,"inclination_deg":43.0004,"raan_deg":95.4404,"arg_perigee_deg":269.2818,"mean_anomaly_deg":90.7813,"bstar":0.0012431,"rev_number":7421,"period_min":91.669074645622,"perigee_km":355.02686609499,"apogee_km":357.80419555871,"semimajor_km":6734.5525308268,"source":"CELESTRAK","updated_at":"2026-05-25T13:38:19.835754Z"}}}